Track YAOGAN 30 now! 10-day predictions YAOGAN 30 is classified as:
1 41473U 16029A 25199.88534891 .00000467 00000-0 74547-4 0 9997 2 41473 97.9522 251.0170 0015077 223.9762 136.0249 14.76317695494496